Time,TemperatureF,DewpointF,PressureIn,WindDirection,WindDirectionDegrees,WindSpeedMPH,WindSpeedGustMPH,Humidity,HourlyPrecipIn,Conditions,Clouds,dailyrainin,SoftwareType,DateUTC
2014-08-27 00:02:00,76.2,72.7,30.01,East,84,0.0,0.0,89,0.00,,CLR,0.00,VWS V14.01,2014-08-27 05:02:00,
2014-08-27 00:07:00,76.0,72.5,30.01,East,84,1.0,2.0,89,0.00,,CLR,0.00,VWS V14.01,2014-08-27 05:07:00,
2014-08-27 00:12:00,76.0,72.5,30.01,East,84,1.0,2.0,89,0.00,,CLR,0.00,VWS V14.01,2014-08-27 05:12:00,
2014-08-27 00:17:00,76.0,72.5,30.01,East,84,0.0,0.0,89,0.00,,CLR,0.00,VWS V14.01,2014-08-27 05:17:00,
2014-08-27 00:22:00,75.9,72.8,30.02,East,84,0.0,0.0,90,0.00,,CLR,0.00,VWS V14.01,2014-08-27 05:22:00,
2014-08-27 00:27:00,75.8,72.7,30.02,East,84,0.0,0.0,90,0.00,,CLR,0.00,VWS V14.01,2014-08-27 05:27:00,
2014-08-27 00:32:00,75.7,72.6,30.02,East,84,0.0,0.0,90,0.00,,CLR,0.00,VWS V14.01,2014-08-27 05:32:00,
2014-08-27 00:37:00,75.5,72.4,30.02,East,84,0.0,0.0,90,0.00,,CLR,0.00,VWS V14.01,2014-08-27 05:37:00,
2014-08-27 00:42:00,75.3,72.2,30.02,East,84,0.0,0.0,90,0.00,,CLR,0.00,VWS V14.01,2014-08-27 05:42:00,
2014-08-27 00:47:00,74.9,71.8,30.01,East,84,0.0,0.0,90,0.00,,CLR,0.00,VWS V14.01,2014-08-27 05:47:00,
2014-08-27 00:52:00,74.7,71.6,30.01,East,84,0.0,0.0,90,0.00,,CLR,0.00,VWS V14.01,2014-08-27 05:52:00,
2014-08-27 00:57:00,74.6,71.5,30.01,East,84,0.0,0.0,90,0.00,,CLR,0.00,VWS V14.01,2014-08-27 05:57:00,
2014-08-27 01:02:00,74.5,71.4,30.01,East,84,0.0,0.0,90,0.00,,CLR,0.00,VWS V14.01,2014-08-27 06:02:00,
2014-08-27 01:07:00,74.3,71.2,30.01,East,84,0.0,0.0,90,0.00,,CLR,0.00,VWS V14.01,2014-08-27 06:07:00,
2014-08-27 01:13:00,74.1,71.0,30.01,East,84,0.0,0.0,90,0.00,,CLR,0.00,VWS V14.01,2014-08-27 06:13:00,
2014-08-27 01:18:00,73.9,70.8,30.02,East,84,0.0,0.0,90,0.00,,CLR,0.00,VWS V14.01,2014-08-27 06:18:00,
2014-08-27 01:23:00,74.0,70.9,30.02,East,84,1.0,2.0,90,0.00,,CLR,0.00,VWS V14.01,2014-08-27 06:23:00,
2014-08-27 01:28:00,73.9,70.8,30.02,East,84,0.0,2.0,90,0.00,,CLR,0.00,VWS V14.01,2014-08-27 06:28:00,
2014-08-27 01:33:00,73.8,71.0,30.02,East,84,0.0,0.0,91,0.00,,CLR,0.00,VWS V14.01,2014-08-27 06:33:00,
2014-08-27 01:38:00,73.7,70.9,30.02,East,84,0.0,0.0,91,0.00,,CLR,0.00,VWS V14.01,2014-08-27 06:38:00,
2014-08-27 01:43:00,73.8,71.0,30.02,East,84,0.0,0.0,91,0.00,,CLR,0.00,VWS V14.01,2014-08-27 06:43:00,
2014-08-27 01:48:00,73.7,70.9,30.02,East,84,0.0,0.0,91,0.00,,CLR,0.00,VWS V14.01,2014-08-27 06:48:00,
2014-08-27 01:53:00,73.5,70.7,30.02,East,84,0.0,0.0,91,0.00,,CLR,0.00,VWS V14.01,2014-08-27 06:53:00,
2014-08-27 01:58:00,73.4,70.6,30.02,East,84,0.0,0.0,91,0.00,,CLR,0.00,VWS V14.01,2014-08-27 06:58:00,
2014-08-27 02:03:00,73.5,70.7,30.02,East,84,0.0,0.0,91,0.00,,CLR,0.00,VWS V14.01,2014-08-27 07:03:00,
2014-08-27 02:08:00,73.6,70.8,30.02,East,84,0.0,0.0,91,0.00,,CLR,0.00,VWS V14.01,2014-08-27 07:08:00,
2014-08-27 02:13:00,73.9,71.1,30.02,East,84,0.0,1.0,91,0.00,,CLR,0.00,VWS V14.01,2014-08-27 07:13:00,
2014-08-27 02:18:00,74.0,71.2,30.02,East,84,0.0,2.0,91,0.00,,CLR,0.00,VWS V14.01,2014-08-27 07:18:00,
2014-08-27 02:24:00,74.1,71.3,30.02,East,84,2.0,3.0,91,0.00,,CLR,0.00,VWS V14.01,2014-08-27 07:24:00,
2014-08-27 02:29:00,74.0,71.2,30.02,East,84,0.0,0.0,91,0.00,,CLR,0.00,VWS V14.01,2014-08-27 07:29:00,
2014-08-27 02:34:00,74.0,71.2,30.01,East,84,1.0,1.0,91,0.00,,CLR,0.00,VWS V14.01,2014-08-27 07:34:00,
2014-08-27 02:39:00,73.9,71.1,30.01,East,84,0.0,2.0,91,0.00,,CLR,0.00,VWS V14.01,2014-08-27 07:39:00,
2014-08-27 02:44:00,73.9,71.1,30.01,East,84,1.0,2.0,91,0.00,,CLR,0.00,VWS V14.01,2014-08-27 07:44:00,
2014-08-27 02:49:00,73.9,71.1,30.01,East,84,0.0,1.0,91,0.00,,CLR,0.00,VWS V14.01,2014-08-27 07:49:00,
2014-08-27 02:54:00,73.8,71.0,30.01,East,84,0.0,0.0,91,0.00,,CLR,0.00,VWS V14.01,2014-08-27 07:54:00,
2014-08-27 02:59:00,73.7,70.9,30.01,East,84,0.0,0.0,91,0.00,,CLR,0.00,VWS V14.01,2014-08-27 07:59:00,
2014-08-27 03:04:00,73.5,70.7,30.01,East,84,0.0,0.0,91,0.00,,CLR,0.00,VWS V14.01,2014-08-27 08:04:00,
2014-08-27 03:09:00,73.4,70.6,30.01,East,84,0.0,0.0,91,0.00,,CLR,0.00,VWS V14.01,2014-08-27 08:09:00,
2014-08-27 03:14:00,73.3,70.5,30.01,East,84,0.0,0.0,91,0.00,,CLR,0.00,VWS V14.01,2014-08-27 08:14:00,
2014-08-27 03:19:00,73.1,70.3,30.01,East,84,0.0,0.0,91,0.00,,CLR,0.00,VWS V14.01,2014-08-27 08:19:00,
2014-08-27 03:24:00,72.9,70.1,30.01,East,84,0.0,0.0,91,0.00,,CLR,0.00,VWS V14.01,2014-08-27 08:24:00,
2014-08-27 03:29:00,72.8,70.0,30.01,East,84,0.0,0.0,91,0.00,,CLR,0.00,VWS V14.01,2014-08-27 08:29:00,
2014-08-27 03:35:00,72.8,70.0,30.00,East,84,0.0,0.0,91,0.00,,CLR,0.00,VWS V14.01,2014-08-27 08:35:00,
2014-08-27 03:40:00,72.6,69.8,30.00,East,84,0.0,0.0,91,0.00,,CLR,0.00,VWS V14.01,2014-08-27 08:40:00,
2014-08-27 03:45:00,72.6,69.8,30.01,East,84,0.0,0.0,91,0.00,,CLR,0.00,VWS V14.01,2014-08-27 08:45:00,
2014-08-27 03:50:00,72.7,69.9,30.01,East,84,0.0,0.0,91,0.00,,CLR,0.00,VWS V14.01,2014-08-27 08:50:00,
2014-08-27 03:55:00,72.7,69.9,30.01,East,84,0.0,0.0,91,0.00,,CLR,0.00,VWS V14.01,2014-08-27 08:55:00,
2014-08-27 04:00:00,72.6,69.8,30.00,East,84,0.0,0.0,91,0.00,,CLR,0.00,VWS V14.01,2014-08-27 09:00:00,
2014-08-27 04:05:00,72.3,69.5,30.00,East,84,0.0,0.0,91,0.00,,CLR,0.00,VWS V14.01,2014-08-27 09:05:00,
2014-08-27 04:10:00,71.9,69.1,30.00,East,84,0.0,0.0,91,0.00,,CLR,0.00,VWS V14.01,2014-08-27 09:10:00,
2014-08-27 04:15:00,71.9,69.1,30.00,East,84,0.0,0.0,91,0.00,,CLR,0.00,VWS V14.01,2014-08-27 09:15:00,
2014-08-27 04:20:00,72.2,69.8,29.99,East,84,0.0,0.0,92,0.00,,CLR,0.00,VWS V14.01,2014-08-27 09:20:00,
2014-08-27 04:25:00,72.3,69.8,29.99,East,84,1.0,2.0,92,0.00,,CLR,0.00,VWS V14.01,2014-08-27 09:25:00,
2014-08-27 04:31:00,72.3,69.8,29.99,East,84,0.0,3.0,92,0.00,,CLR,0.00,VWS V14.01,2014-08-27 09:31:00,
2014-08-27 04:36:00,72.1,69.7,29.99,East,84,2.0,3.0,92,0.00,,CLR,0.00,VWS V14.01,2014-08-27 09:36:00,
2014-08-27 04:41:00,72.2,69.8,29.99,East,84,0.0,2.0,92,0.00,,CLR,0.00,VWS V14.01,2014-08-27 09:41:00,
2014-08-27 04:46:00,72.3,69.8,29.99,East,84,0.0,2.0,92,0.00,,CLR,0.00,VWS V14.01,2014-08-27 09:46:00,
2014-08-27 04:51:00,72.0,69.6,29.98,East,84,0.0,0.0,92,0.00,,CLR,0.00,VWS V14.01,2014-08-27 09:51:00,
2014-08-27 04:56:00,72.1,69.7,29.98,East,96,2.0,5.0,92,0.00,,CLR,0.00,VWS V14.01,2014-08-27 09:56:00,
2014-08-27 05:01:00,72.2,69.8,29.98,East,96,1.0,2.0,92,0.00,,CLR,0.00,VWS V14.01,2014-08-27 10:01:00,
2014-08-27 05:06:00,72.2,69.8,29.98,East,96,2.0,4.0,92,0.00,,CLR,0.00,VWS V14.01,2014-08-27 10:06:00,
2014-08-27 05:11:00,72.1,69.7,29.98,East,96,1.0,1.0,92,0.00,,CLR,0.00,VWS V14.01,2014-08-27 10:11:00,
2014-08-27 05:16:00,72.0,69.6,29.98,East,96,0.0,0.0,92,0.00,,CLR,0.00,VWS V14.01,2014-08-27 10:16:00,
2014-08-27 05:21:00,71.8,69.3,29.98,East,96,1.0,1.0,92,0.00,,CLR,0.00,VWS V14.01,2014-08-27 10:21:00,
2014-08-27 05:26:00,71.8,69.3,29.98,East,96,0.0,1.0,92,0.00,,CLR,0.00,VWS V14.01,2014-08-27 10:26:00,
2014-08-27 05:31:00,71.8,69.3,29.98,East,96,0.0,1.0,92,0.00,,CLR,0.00,VWS V14.01,2014-08-27 10:31:00,
2014-08-27 05:36:00,71.7,69.3,29.98,East,96,0.0,2.0,92,0.00,,CLR,0.00,VWS V14.01,2014-08-27 10:36:00,
2014-08-27 05:42:00,71.6,69.2,29.98,East,96,0.0,0.0,92,0.00,,CLR,0.00,VWS V14.01,2014-08-27 10:42:00,
2014-08-27 05:47:00,71.5,69.1,29.99,East,96,0.0,0.0,92,0.00,,CLR,0.00,VWS V14.01,2014-08-27 10:47:00,
2014-08-27 05:52:00,71.3,68.9,29.99,East,96,0.0,0.0,92,0.00,,CLR,0.00,VWS V14.01,2014-08-27 10:52:00,
2014-08-27 05:57:00,71.2,68.8,29.99,East,96,0.0,0.0,92,0.00,,CLR,0.00,VWS V14.01,2014-08-27 10:57:00,
2014-08-27 06:02:00,71.2,68.8,29.99,East,96,0.0,0.0,92,0.00,,CLR,0.00,VWS V14.01,2014-08-27 11:02:00,
2014-08-27 06:07:00,71.1,68.7,30.00,East,96,0.0,0.0,92,0.00,,CLR,0.00,VWS V14.01,2014-08-27 11:07:00,
2014-08-27 06:12:00,71.0,68.6,30.00,East,96,0.0,0.0,92,0.00,,CLR,0.00,VWS V14.01,2014-08-27 11:12:00,
2014-08-27 06:17:00,70.8,68.4,30.00,East,96,0.0,0.0,92,0.00,,CLR,0.00,VWS V14.01,2014-08-27 11:17:00,
2014-08-27 06:22:00,70.8,68.4,30.00,East,96,0.0,0.0,92,0.00,,CLR,0.00,VWS V14.01,2014-08-27 11:22:00,
2014-08-27 06:27:00,70.9,68.5,30.01,East,96,0.0,1.0,92,0.00,,CLR,0.00,VWS V14.01,2014-08-27 11:27:00,
2014-08-27 06:32:00,70.8,68.4,30.01,East,96,0.0,0.0,92,0.00,,CLR,0.00,VWS V14.01,2014-08-27 11:32:00,
2014-08-27 06:37:00,70.6,68.2,30.01,East,96,0.0,0.0,92,0.00,,CLR,0.00,VWS V14.01,2014-08-27 11:37:00,
2014-08-27 06:42:00,70.4,68.0,30.01,East,96,0.0,0.0,92,0.00,,CLR,0.00,VWS V14.01,2014-08-27 11:42:00,
2014-08-27 06:47:00,70.5,68.1,30.01,East,96,0.0,0.0,92,0.00,,CLR,0.00,VWS V14.01,2014-08-27 11:47:00,
2014-08-27 06:52:00,70.6,68.2,30.01,East,96,0.0,0.0,92,0.00,,CLR,0.00,VWS V14.01,2014-08-27 11:52:00,
2014-08-27 06:58:00,70.5,68.1,30.01,East,96,2.0,2.0,92,0.00,,CLR,0.00,VWS V14.01,2014-08-27 11:58:00,
2014-08-27 07:03:00,70.6,68.2,30.01,East,96,1.0,2.0,92,0.00,,CLR,0.00,VWS V14.01,2014-08-27 12:03:00,
2014-08-27 07:08:00,70.6,68.2,30.01,East,96,2.0,4.0,92,0.00,,CLR,0.00,VWS V14.01,2014-08-27 12:08:00,
2014-08-27 07:14:00,70.6,68.2,30.01,East,96,1.0,4.0,92,0.00,,CLR,0.00,VWS V14.01,2014-08-27 12:14:00,
2014-08-27 07:19:00,70.7,68.3,30.01,East,96,0.0,0.0,92,0.00,,CLR,0.00,VWS V14.01,2014-08-27 12:19:00,
2014-08-27 07:24:00,70.7,68.3,30.02,East,96,0.0,0.0,92,0.00,,CLR,0.00,VWS V14.01,2014-08-27 12:24:00,
2014-08-27 07:29:00,70.7,68.3,30.02,East,96,0.0,0.0,92,0.00,,CLR,0.00,VWS V14.01,2014-08-27 12:29:00,
2014-08-27 07:34:00,70.7,68.3,30.02,East,96,0.0,0.0,92,0.00,,CLR,0.00,VWS V14.01,2014-08-27 12:34:00,
2014-08-27 07:39:00,70.7,68.3,30.02,East,96,0.0,0.0,92,0.00,,CLR,0.00,VWS V14.01,2014-08-27 12:39:00,
2014-08-27 07:44:00,70.9,68.5,30.02,East,96,0.0,1.0,92,0.00,,CLR,0.00,VWS V14.01,2014-08-27 12:44:00,
2014-08-27 07:49:00,71.0,68.6,30.02,East,96,2.0,2.0,92,0.00,,CLR,0.00,VWS V14.01,2014-08-27 12:49:00,
2014-08-27 07:54:00,71.2,68.8,30.02,East,96,0.0,1.0,92,0.00,,CLR,0.00,VWS V14.01,2014-08-27 12:54:00,
2014-08-27 07:59:00,71.3,68.9,30.02,East,96,0.0,1.0,92,0.00,,CLR,0.00,VWS V14.01,2014-08-27 12:59:00,
2014-08-27 08:04:00,71.7,69.3,30.02,East,96,0.0,0.0,92,0.00,,CLR,0.00,VWS V14.01,2014-08-27 13:04:00,
2014-08-27 08:09:00,72.2,69.8,30.02,East,96,0.0,0.0,92,0.00,,CLR,0.00,VWS V14.01,2014-08-27 13:09:00,
2014-08-27 08:15:00,72.5,69.7,30.02,East,96,1.0,1.0,91,0.00,,CLR,0.00,VWS V14.01,2014-08-27 13:15:00,
2014-08-27 08:20:00,73.0,70.2,30.03,East,96,2.0,4.0,91,0.00,,CLR,0.00,VWS V14.01,2014-08-27 13:20:00,
2014-08-27 08:25:00,73.4,70.6,30.04,East,83,2.0,3.0,91,0.00,,CLR,0.00,VWS V14.01,2014-08-27 13:25:00,
2014-08-27 08:30:00,73.7,70.9,30.04,ENE,71,2.0,3.0,91,0.00,,CLR,0.00,VWS V14.01,2014-08-27 13:30:00,
2014-08-27 08:35:00,74.1,71.0,30.04,ENE,71,0.0,1.0,90,0.00,,CLR,0.00,VWS V14.01,2014-08-27 13:35:00,
2014-08-27 08:40:00,74.7,71.6,30.04,ENE,75,0.0,2.0,90,0.00,,CLR,0.00,VWS V14.01,2014-08-27 13:40:00,
2014-08-27 08:45:00,75.3,71.8,30.05,NE,44,3.0,4.0,89,0.00,,CLR,0.00,VWS V14.01,2014-08-27 13:45:00,
2014-08-27 08:50:00,75.8,72.3,30.04,NNE,15,0.0,2.0,89,0.00,,CLR,0.00,VWS V14.01,2014-08-27 13:50:00,
2014-08-27 08:55:00,76.1,72.3,30.05,NNE,15,1.0,2.0,88,0.00,,CLR,0.00,VWS V14.01,2014-08-27 13:55:00,
2014-08-27 09:00:00,76.4,72.6,30.05,NNE,15,1.0,3.0,88,0.00,,CLR,0.00,VWS V14.01,2014-08-27 14:00:00,
2014-08-27 09:05:00,76.8,73.0,30.05,NNE,15,2.0,2.0,88,0.00,,FEW120,0.00,VWS V14.01,2014-08-27 14:05:00,
2014-08-27 09:10:00,77.2,73.0,30.05,NNE,15,1.0,3.0,87,0.00,,FEW120,0.00,VWS V14.01,2014-08-27 14:10:00,
2014-08-27 09:15:00,77.5,73.0,30.05,NE,47,2.0,4.0,86,0.00,,FEW120,0.00,VWS V14.01,2014-08-27 14:15:00,
2014-08-27 09:20:00,78.0,73.5,30.05,NNE,30,2.0,4.0,86,0.00,,FEW120,0.00,VWS V14.01,2014-08-27 14:20:00,
2014-08-27 09:26:00,78.3,73.4,30.05,NNE,24,1.0,2.0,85,0.00,,FEW120,0.00,VWS V14.01,2014-08-27 14:26:00,
2014-08-27 09:31:00,78.5,73.3,30.06,North,10,2.0,6.0,84,0.00,,FEW120,0.00,VWS V14.01,2014-08-27 14:31:00,
2014-08-27 09:36:00,78.4,73.2,30.06,North,10,2.0,5.0,84,0.00,,FEW120,0.00,VWS V14.01,2014-08-27 14:36:00,
2014-08-27 09:41:00,78.7,73.5,30.06,NNE,23,2.0,4.0,84,0.00,,FEW120,0.00,VWS V14.01,2014-08-27 14:41:00,
2014-08-27 09:46:00,78.7,73.5,30.06,NNE,22,1.0,2.0,84,0.00,,FEW120,0.00,VWS V14.01,2014-08-27 14:46:00,
2014-08-27 09:51:00,79.2,73.6,30.06,ENE,69,2.0,5.0,83,0.00,,FEW120,0.00,VWS V14.01,2014-08-27 14:51:00,
2014-08-27 09:56:00,79.4,73.8,30.05,ENE,74,4.0,12.0,83,0.00,,FEW120,0.00,VWS V14.01,2014-08-27 14:56:00,
2014-08-27 10:01:00,79.3,73.7,30.06,ENE,61,2.0,3.0,83,0.00,,CLR,0.00,VWS V14.01,2014-08-27 15:01:00,
2014-08-27 10:06:00,79.4,74.2,30.06,ENE,77,4.0,5.0,84,0.00,,CLR,0.00,VWS V14.01,2014-08-27 15:06:00,
2014-08-27 10:11:00,79.8,74.5,30.06,ENE,65,1.0,4.0,84,0.00,,CLR,0.00,VWS V14.01,2014-08-27 15:11:00,
2014-08-27 10:16:00,80.1,73.8,30.06,NE,43,4.0,5.0,81,0.00,,CLR,0.00,VWS V14.01,2014-08-27 15:16:00,
2014-08-27 10:21:00,80.4,74.4,30.05,NNE,30,3.0,6.0,82,0.00,,CLR,0.00,VWS V14.01,2014-08-27 15:21:00,
2014-08-27 10:27:00,80.8,75.2,30.05,ENE,75,0.0,2.0,83,0.00,,CLR,0.00,VWS V14.01,2014-08-27 15:27:00,
2014-08-27 10:32:00,80.9,74.5,30.06,East,89,7.0,9.0,81,0.00,,CLR,0.00,VWS V14.01,2014-08-27 15:32:00,
2014-08-27 10:37:00,80.3,73.9,30.06,East,100,2.0,4.0,81,0.00,,CLR,0.00,VWS V14.01,2014-08-27 15:37:00,
2014-08-27 10:42:00,79.8,73.4,30.06,NE,49,1.0,4.0,81,0.00,,CLR,0.00,VWS V14.01,2014-08-27 15:42:00,
2014-08-27 10:47:00,79.2,72.5,30.06,ENE,73,3.0,6.0,80,0.00,,CLR,0.00,VWS V14.01,2014-08-27 15:47:00,
2014-08-27 10:52:00,79.0,73.4,30.06,NE,45,1.0,4.0,83,0.00,,CLR,0.00,VWS V14.01,2014-08-27 15:52:00,
2014-08-27 10:57:00,79.3,73.3,30.06,ENE,77,6.0,8.0,82,0.00,,CLR,0.00,VWS V14.01,2014-08-27 15:57:00,
2014-08-27 11:02:00,78.9,72.6,30.06,ENE,69,2.0,8.0,81,0.00,,FEW011,0.00,VWS V14.01,2014-08-27 16:02:00,
2014-08-27 11:07:00,79.1,73.1,30.06,ESE,111,5.0,6.0,82,0.00,,FEW011,0.00,VWS V14.01,2014-08-27 16:07:00,
2014-08-27 11:12:00,79.4,73.8,30.06,East,93,2.0,6.0,83,0.00,,FEW011,0.00,VWS V14.01,2014-08-27 16:12:00,
2014-08-27 11:17:00,79.3,73.3,30.06,ENE,71,1.0,5.0,82,0.00,,FEW011,0.00,VWS V14.01,2014-08-27 16:17:00,
2014-08-27 11:22:00,79.4,73.4,30.06,ENE,75,3.0,3.0,82,0.00,,FEW011,0.00,VWS V14.01,2014-08-27 16:22:00,
2014-08-27 11:28:00,79.3,73.3,30.07,ENE,69,1.0,4.0,82,0.00,,FEW011,0.00,VWS V14.01,2014-08-27 16:28:00,
2014-08-27 11:33:00,79.1,72.8,30.07,ENE,59,0.0,4.0,81,0.00,,FEW011,0.00,VWS V14.01,2014-08-27 16:33:00,
2014-08-27 11:38:00,79.2,73.6,30.07,SE,124,4.0,4.0,83,0.00,,FEW011,0.00,VWS V14.01,2014-08-27 16:38:00,
2014-08-27 11:43:00,79.7,74.1,30.07,East,83,0.0,3.0,83,0.00,,FEW011,0.00,VWS V14.01,2014-08-27 16:43:00,
2014-08-27 11:48:00,80.0,73.7,30.07,ENE,62,2.0,6.0,81,0.00,,FEW011,0.00,VWS V14.01,2014-08-27 16:48:00,
2014-08-27 11:53:00,79.8,73.4,30.06,ENE,69,3.0,6.0,81,0.00,,FEW011,0.00,VWS V14.01,2014-08-27 16:53:00,
2014-08-27 11:58:00,80.0,74.4,30.06,East,84,0.0,2.0,83,0.00,,FEW011,0.00,VWS V14.01,2014-08-27 16:58:00,
2014-08-27 12:03:00,81.0,75.3,30.06,East,84,2.0,3.0,83,0.00,,CLR,0.00,VWS V14.01,2014-08-27 17:03:00,
2014-08-27 12:08:00,81.4,75.0,30.05,East,87,3.0,4.0,81,0.00,,CLR,0.00,VWS V14.01,2014-08-27 17:08:00,
2014-08-27 12:13:00,81.6,74.8,30.05,ENE,77,5.0,5.0,80,0.00,,CLR,0.00,VWS V14.01,2014-08-27 17:13:00,
2014-08-27 12:18:00,81.5,74.4,30.05,East,94,4.0,4.0,79,0.00,,CLR,0.00,VWS V14.01,2014-08-27 17:18:00,
2014-08-27 12:24:00,81.0,74.6,30.05,East,89,2.0,5.0,81,0.00,,CLR,0.00,VWS V14.01,2014-08-27 17:24:00,
2014-08-27 12:29:00,80.8,73.7,30.06,ENE,70,4.0,4.0,79,0.00,,CLR,0.00,VWS V14.01,2014-08-27 17:29:00,
2014-08-27 12:34:00,80.8,73.7,30.06,East,89,4.0,6.0,79,0.00,,CLR,0.00,VWS V14.01,2014-08-27 17:34:00,
2014-08-27 12:39:00,81.1,74.3,30.06,NE,34,4.0,9.0,80,0.00,,CLR,0.00,VWS V14.01,2014-08-27 17:39:00,
2014-08-27 12:44:00,81.4,74.3,30.06,ENE,78,2.0,5.0,79,0.00,,CLR,0.00,VWS V14.01,2014-08-27 17:44:00,
2014-08-27 12:49:00,81.7,74.9,30.06,NNE,13,1.0,5.0,80,0.00,,CLR,0.00,VWS V14.01,2014-08-27 17:49:00,
2014-08-27 12:54:00,81.8,74.3,30.05,ENE,67,5.0,8.0,78,0.00,,CLR,0.00,VWS V14.01,2014-08-27 17:54:00,
2014-08-27 12:59:00,81.6,74.8,30.05,NNE,22,1.0,4.0,80,0.00,,CLR,0.00,VWS V14.01,2014-08-27 17:59:00,
2014-08-27 13:04:00,81.8,75.0,30.05,ENE,64,2.0,5.0,80,0.00,,FEW060,0.00,VWS V14.01,2014-08-27 18:04:00,
2014-08-27 13:09:00,81.8,74.7,30.05,North,5,0.0,1.0,79,0.00,,FEW060,0.00,VWS V14.01,2014-08-27 18:09:00,
2014-08-27 13:14:00,81.8,75.4,30.05,NNE,19,3.0,4.0,81,0.00,,FEW060,0.00,VWS V14.01,2014-08-27 18:14:00,
2014-08-27 13:19:00,82.3,75.5,30.05,NNE,17,3.0,4.0,80,0.00,,FEW060,0.00,VWS V14.01,2014-08-27 18:19:00,
2014-08-27 13:24:00,82.8,74.5,30.05,ESE,114,7.0,7.0,76,0.00,,FEW060,0.00,VWS V14.01,2014-08-27 18:24:00,
2014-08-27 13:29:00,81.8,74.3,30.05,East,82,1.0,3.0,78,0.00,,FEW060,0.00,VWS V14.01,2014-08-27 18:29:00,
2014-08-27 13:34:00,80.9,73.4,30.04,ENE,73,4.0,6.0,78,0.00,,FEW060,0.00,VWS V14.01,2014-08-27 18:34:00,
2014-08-27 13:40:00,80.5,73.0,30.04,East,85,4.0,5.0,78,0.00,,FEW060,0.00,VWS V14.01,2014-08-27 18:40:00,
2014-08-27 13:45:00,80.4,72.5,30.04,East,97,6.0,7.0,77,0.00,,FEW060,0.00,VWS V14.01,2014-08-27 18:45:00,
2014-08-27 13:50:00,80.9,73.8,30.04,East,101,5.0,6.0,79,0.00,,FEW060,0.00,VWS V14.01,2014-08-27 18:50:00,
2014-08-27 13:55:00,82.0,74.1,30.04,East,89,4.0,6.0,77,0.00,,FEW060,0.00,VWS V14.01,2014-08-27 18:55:00,
2014-08-27 14:00:00,81.9,73.2,30.04,ENE,71,5.0,7.0,75,0.00,,FEW060,0.00,VWS V14.01,2014-08-27 19:00:00,
2014-08-27 14:05:00,81.6,73.3,30.04,ENE,66,7.0,10.0,76,0.00,,CLR,0.00,VWS V14.01,2014-08-27 19:05:00,
2014-08-27 14:10:00,81.8,74.7,30.04,ESE,120,4.0,5.0,79,0.00,,CLR,0.00,VWS V14.01,2014-08-27 19:10:00,
2014-08-27 14:15:00,81.8,74.3,30.04,ENE,65,5.0,5.0,78,0.00,,CLR,0.00,VWS V14.01,2014-08-27 19:15:00,
2014-08-27 14:20:00,82.0,74.5,30.04,ESE,107,4.0,6.0,78,0.00,,CLR,0.00,VWS V14.01,2014-08-27 19:20:00,
2014-08-27 14:25:00,82.4,75.6,30.03,ENE,65,2.0,3.0,80,0.00,,CLR,0.00,VWS V14.01,2014-08-27 19:25:00,
2014-08-27 14:30:00,82.7,75.9,30.03,NNE,32,2.0,4.0,80,0.00,,CLR,0.00,VWS V14.01,2014-08-27 19:30:00,
2014-08-27 14:35:00,82.5,74.6,30.03,East,93,5.0,7.0,77,0.00,,CLR,0.00,VWS V14.01,2014-08-27 19:35:00,
2014-08-27 14:41:00,82.4,74.9,30.03,ENE,67,3.0,6.0,78,0.00,,CLR,0.00,VWS V14.01,2014-08-27 19:41:00,
2014-08-27 14:46:00,82.6,74.7,30.02,East,92,5.0,6.0,77,0.00,,CLR,0.00,VWS V14.01,2014-08-27 19:46:00,
2014-08-27 14:51:00,82.4,75.2,30.02,ENE,68,2.0,6.0,79,0.00,,CLR,0.00,VWS V14.01,2014-08-27 19:51:00,
2014-08-27 14:56:00,82.7,74.8,30.02,ESE,105,4.0,6.0,77,0.00,,CLR,0.00,VWS V14.01,2014-08-27 19:56:00,
2014-08-27 15:01:00,82.9,75.7,30.02,East,93,5.0,6.0,79,0.00,,CLR,0.00,VWS V14.01,2014-08-27 20:01:00,
2014-08-27 15:06:00,82.8,75.2,30.02,East,93,5.0,6.0,78,0.00,,CLR,0.00,VWS V14.01,2014-08-27 20:06:00,
2014-08-27 15:11:00,82.3,74.4,30.01,East,80,3.0,7.0,77,0.00,,CLR,0.00,VWS V14.01,2014-08-27 20:11:00,
2014-08-27 15:16:00,82.3,74.4,30.01,East,100,6.0,9.0,77,0.00,,CLR,0.00,VWS V14.01,2014-08-27 20:16:00,
2014-08-27 15:21:00,82.3,74.4,30.01,ENE,67,6.0,9.0,77,0.00,,CLR,0.00,VWS V14.01,2014-08-27 20:21:00,
2014-08-27 15:26:00,82.2,73.9,30.01,East,89,6.0,10.0,76,0.00,,CLR,0.00,VWS V14.01,2014-08-27 20:26:00,
2014-08-27 15:31:00,82.1,74.2,30.01,East,89,6.0,7.0,77,0.00,,CLR,0.00,VWS V14.01,2014-08-27 20:31:00,
2014-08-27 15:36:00,82.6,73.9,30.01,East,97,4.0,7.0,75,0.00,,CLR,0.00,VWS V14.01,2014-08-27 20:36:00,
2014-08-27 15:42:00,83.1,74.8,30.00,East,88,3.0,5.0,76,0.00,,CLR,0.00,VWS V14.01,2014-08-27 20:42:00,
2014-08-27 15:47:00,83.4,74.2,30.00,East,93,5.0,10.0,74,0.00,,CLR,0.00,VWS V14.01,2014-08-27 20:47:00,
2014-08-27 15:52:00,83.1,74.4,30.00,ENE,68,2.0,6.0,75,0.00,,CLR,0.00,VWS V14.01,2014-08-27 20:52:00,
2014-08-27 15:57:00,83.2,74.1,30.00,East,90,9.0,11.0,74,0.00,,CLR,0.00,VWS V14.01,2014-08-27 20:57:00,
2014-08-27 16:02:00,83.4,74.7,30.00,ENE,61,4.0,8.0,75,0.00,,FEW024,0.00,VWS V14.01,2014-08-27 21:02:00,
2014-08-27 16:07:00,83.4,74.2,29.99,ESE,111,9.0,11.0,74,0.00,,FEW024,0.00,VWS V14.01,2014-08-27 21:07:00,
2014-08-27 16:12:00,83.3,73.8,29.99,ENE,61,5.0,7.0,73,0.00,,FEW024,0.00,VWS V14.01,2014-08-27 21:12:00,
2014-08-27 16:17:00,83.4,74.7,29.99,ENE,62,5.0,12.0,75,0.00,,FEW024,0.00,VWS V14.01,2014-08-27 21:17:00,
2014-08-27 16:22:00,83.4,74.2,29.99,ENE,74,5.0,8.0,74,0.00,,FEW024,0.00,VWS V14.01,2014-08-27 21:22:00,
2014-08-27 16:27:00,83.7,74.5,29.98,NE,44,5.0,6.0,74,0.00,,FEW024,0.00,VWS V14.01,2014-08-27 21:27:00,